Regional Weather Roundup
Issued by NWS Tiyan, Guam

Home | Current Version | Previous Version | Text Only | Print | Product List | Glossary On
Versions: 1 2 3 4 5 6 7 8 9 10 11 12 13 14 15 16 17 18 19 20 21 22 23 24 25 26 27 28
000
ASGM40 PGUM 250812
RWRGUM
WEATHER ROUNDUP FOR THE MARIANAS
NATIONAL WEATHER SERVICE TIYAN GU
600 PM CHST MON SEP 25 2017

GUZ001>004-250900-
MARIANA ISLANDS-

CITY           SKY/WX    TMP DP  RH WIND       PRES   REMARKS
GUAM AIRPORT   PTCLDY    79  77  94 NE7       29.85R
ANDERSEN AFB   MOCLDY    79  75  89 NE7       29.86R
ROTA AIRPORT   MOCLDY    75  68  78 CALM      29.85R
TINIAN AP      MOCLDY    82  77  83 E6        29.83R HX  91
SAIPAN AP      MOCLDY    82  81  94 E9        29.84R HX  95

$$





USA.gov is the U.S. government's official web portal to all federal, state and local government web resources and services.